Wind_Speed
32 30 28 26 26 26 27 27 26 26 26 25 25 23 21 20 21 21 21 20 21 21 21 22 23 24 25 25 26 25 26 26 26 24 24 23 24 24 23 22 23 24 24
36 33 31 29 27 27 28 30 29 29 29 29 27 26 25 24 23 22 22 22 21 21 21 22 24 26 27 28 28 27 27 27 27 27 27 26 25 24 23 23 23 24 24
39 36 33 31 30 29 30 32 33 34 34 33 32 31 29 27 25 23 22 22 22 21 22 24 25 27 28 28 28 27 27 27 28 28 28 28 28 25 25 25 24 24 24
39 38 35 34 34 34 35 36 36 37 39 39 36 33 29 27 25 24 23 23 24 24 25 25 26 27 27 26 26 26 26 27 27 27 27 28 28 28 26 26 26 25 24
38 37 36 35 36 38 38 39 38 40 41 39 36 33 31 28 26 24 24 25 26 25 25 25 26 25 25 24 24 25 26 27 27 28 28 28 28 27 27 26 26 25 24
36 35 35 36 38 40 41 41 40 44 44 40 37 34 31 28 25 23 23 24 24 24 25 25 25 24 23 24 25 26 27 27 27 27 28 29 30 28 27 26 25 25 25
33 35 36 37 39 40 42 43 43 46 44 40 35 33 30 26 22 21 22 23 24 24 25 25 24 23 23 24 25 26 26 25 25 26 27 28 29 28 27 25 25 25 25
30 34 37 38 39 39 41 41 44 44 41 40 37 32 27 23 20 19 20 22 23 24 25 25 24 24 24 25 26 26 25 24 23 24 25 27 27 27 26 25 25 25 25
28 32 35 37 37 38 38 39 42 39 37 35 30 27 22 18 17 19 20 22 23 25 26 26 26 25 25 26 26 25 24 23 22 21 21 23 25 25 24 23 25 25 25
24 28 31 34 35 34 34 34 35 32 29 27 22 18 14 14 17 19 20 22 24 26 28 29 28 27 27 26 24 24 23 22 21 19 18 19 20 20 19 20 19 22 24
17 20 24 27 27 28 26 25 25 22 20 17 14 12 13 15 17 19 22 23 25 26 27 27 27 26 25 24 23 22 22 21 20 19 18 18 18 18 18 18 17 19 22
10 10 10 9 8 7 9 11 12 12 11 10 10 12 13 15 17 19 21 21 21 22 22 23 23 23 23 23 23 22 21 20 20 19 19 18 18 19 20 20 19 20 21
4 3 4 4 5 7 8 7 5 5 5 7 10 12 13 14 16 17 17 18 18 18 20 21 21 21 21 21 21 21 20 20 20 20 20 19 18 18 19 20 21 21 22
3 2 5 6 6 5 4 2 2 4 7 9 11 13 13 13 14 14 15 16 17 18 18 19 20 20 21 21 21 21 20 20 21 22 22 21 20 19 18 19 21 22 23
5 4 4 5 4 3 2 3 6 8 11 12 14 14 13 13 12 14 16 17 18 19 19 19 19 20 21 22 22 22 22 22 22 24 25 24 23 21 21 20 21 22 24
6 5 3 2 2 2 5 7 10 11 13 14 14 13 13 13 14 17 19 19 20 20 20 20 20 20 20 21 21 22 22 23 23 24 25 26 25 24 23 23 23 24 24
4 3 3 4 5 6 7 10 11 12 13 13 13 14 15 16 18 19 20 21 21 21 21 21 21 21 21 21 22 21 22 22 23 24 25 26 26 26 25 25 25 25 25
5 3 2 3 3 5 6 7 9 10 11 13 14 16 17 18 19 20 21 21 21 21 22 22 22 22 21 21 22 22 22 23 23 23 24 25 26 26 26 26 26 26 26
10 8 8 7 6 6 7 8 9 11 12 14 16 17 18 19 20 20 20 20 20 20 21 21 21 21 20 20 20 21 22 22 22 22 23 24 25 25 25 25 26 26 26
11 10 9 8 8 8 9 10 11 13 14 15 16 17 18 19 19 19 19 19 19 19 19 19 19 19 19 19 19 20 21 21 21 22 23 23 24 24 24 24 24 25 25
10 9 9 8 8 9 10 11 12 13 14 16 17 18 19 19 20 20 20 20 20 19 18 18 19 19 19 19 20 20 21 23 23 24 24 25 25 24 24 24 23 23 24
11 11 10 10 10 11 12 13 15 16 17 17 17 18 19 19 20 21 20 19 18 17 17 18 19 19 19 20 21 22 23 24 26 27 27 28 28 27 26 24 23 22 22
13 12 12 12 13 14 16 17 18 18 18 18 18 18 19 19 19 18 17 16 15 14 15 16 17 18 18 19 21 22 23 24 26 28 29 29 29 29 28 26 24 23 21
13 13 13 13 14 16 17 18 18 18 19 19 19 19 18 17 17 15 14 13 12 12 13 14 14 15 17 17 18 19 20 22 24 26 27 27 27 27 27 26 24 22 21
14 14 14 14 14 15 16 16 17 17 19 20 20 20 18 17 16 14 13 12 11 11 12 12 14 15 15 16 16 16 16 16 15 15 16 18 20 21 23 23 23 21 20
14 14 14 14 14 15 15 15 15 17 19 20 20 20 19 18 17 16 14 13 13 12 13 14 15 16 16 16 15 13 13 11 8 4 3 8 12 14 16 18 18 18 17
Wind_Direction
259 259 262 261 260 264 270 274 275 273 269 265 263 261 258 257 258 263 269 273 274 271 269 269 269 272 278 283 285 285 286 286 287 283 278 275 272 265 256 254 251 244 242
257 256 257 257 252 256 264 270 272 269 264 259 255 253 252 254 257 263 267 270 269 266 263 264 266 270 276 280 281 281 282 282 282 281 277 272 269 264 258 252 250 245 242
257 256 256 252 248 252 260 266 268 268 263 255 248 245 245 249 253 259 263 265 265 265 264 265 268 270 274 277 279 280 279 279 279 278 276 270 265 263 259 250 248 245 243
258 256 254 250 246 250 256 260 263 263 262 256 247 241 240 244 248 253 256 259 261 264 268 271 275 276 278 279 279 280 280 279 278 276 273 272 267 262 262 252 244 243 243
254 253 252 251 248 248 254 257 258 257 256 252 246 240 238 240 243 248 253 256 260 265 271 276 280 283 284 284 283 282 280 279 276 272 269 270 269 264 262 255 245 242 242
249 248 249 248 247 248 251 252 253 252 251 249 245 239 235 235 237 244 252 256 262 268 273 277 283 287 289 289 287 285 283 281 276 270 265 265 267 267 266 259 247 240 239
243 243 245 245 245 247 248 249 248 248 248 248 245 237 234 232 237 246 253 261 267 273 277 283 288 290 290 289 288 287 285 282 275 269 263 261 263 266 267 265 252 237 234
239 240 241 242 242 245 247 246 246 249 249 249 246 240 236 238 244 252 260 268 275 280 285 290 293 292 290 289 288 287 286 282 276 271 264 260 260 263 264 263 252 239 230
242 242 243 244 244 245 248 247 246 249 250 249 244 240 241 245 251 259 268 278 284 288 292 294 293 290 287 286 287 287 286 281 275 271 265 260 258 259 259 262 253 240 228
251 250 247 248 248 249 249 249 246 246 243 242 239 238 241 252 264 274 283 288 291 293 295 296 294 290 286 284 285 286 285 279 272 267 262 258 256 254 254 253 249 237 229
263 264 262 260 259 256 252 245 237 230 229 230 229 237 255 269 279 286 290 293 295 297 297 296 294 291 288 284 283 283 283 277 269 262 258 255 254 253 249 247 248 242 233
285 294 294 288 267 234 215 200 198 198 205 221 239 255 269 282 289 293 295 297 299 300 298 297 296 293 288 282 278 279 277 272 267 260 255 254 253 253 251 250 250 246 238
281 345 47 81 118 127 136 144 158 182 226 258 274 283 290 296 296 298 300 302 301 299 296 295 294 292 287 280 276 276 274 268 263 259 256 254 254 253 251 249 248 246 243
170 122 92 103 114 128 136 166 227 262 283 289 302 306 308 307 303 302 303 302 299 297 297 295 292 289 285 280 276 274 272 267 261 257 256 255 254 252 249 246 244 244 244
168 157 132 128 136 163 218 272 292 299 303 308 313 313 311 310 306 304 304 302 299 297 297 297 296 292 286 281 277 273 272 268 263 258 255 254 254 253 251 248 246 243 244
183 180 179 182 209 272 287 295 298 299 300 304 308 309 307 303 303 304 303 300 298 296 296 296 296 293 287 282 277 274 273 270 264 259 255 253 253 253 254 253 252 249 248
187 208 232 255 273 284 296 301 299 297 298 301 304 305 304 304 304 304 302 300 298 296 294 294 295 293 288 283 278 277 274 272 267 260 255 252 251 252 254 256 257 256 254
85 72 17 334 309 301 306 312 311 311 309 307 306 307 306 305 305 304 302 299 296 294 293 294 294 293 289 283 278 277 275 272 269 263 256 252 250 250 251 253 255 258 258
63 55 42 32 24 12 357 343 332 323 315 311 309 307 306 305 304 303 301 299 296 294 293 293 293 294 291 285 280 277 275 273 268 263 257 253 250 249 249 251 252 255 257
57 46 35 24 13 359 347 337 330 323 318 313 309 306 304 303 303 302 300 299 296 294 293 292 293 294 292 288 283 278 275 271 268 263 257 253 251 250 250 252 254 256 258
47 37 26 15 4 356 348 340 333 327 322 317 313 310 309 308 307 306 304 302 299 295 293 292 293 293 293 290 286 281 276 271 268 264 259 254 252 252 251 252 254 257 259
37 31 24 17 11 5 357 349 343 339 335 331 328 323 320 317 315 313 311 308 304 298 295 294 295 296 295 292 289 285 279 274 269 264 260 255 252 250 249 249 251 254 257
35 31 26 20 13 7 0 355 352 350 349 346 341 337 333 329 326 323 320 316 311 306 304 303 302 302 301 299 298 294 286 279 274 268 261 255 249 246 245 246 248 252 255
32 27 22 17 13 8 4 1 0 0 360 358 355 353 350 346 342 339 336 331 327 324 322 320 319 317 313 311 308 304 298 292 281 271 262 254 247 242 240 240 244 249 252
28 24 19 18 17 15 11 10 10 10 9 9 9 8 7 5 4 2 360 356 352 348 345 343 340 336 331 326 323 320 317 312 298 279 260 246 237 233 232 233 236 243 250
24 20 19 21 21 20 20 21 20 19 18 19 19 19 20 21 21 22 21 20 17 12 6 1 356 352 348 345 344 343 346 347 345 328 232 209 206 210 216 220 227 237 246
Height
5856 5857 5858 5859 5860 5860 5860 5859 5858 5858 5858 5858 5857 5857 5857 5857 5857 5857 5857 5858 5858 5858 5858 5858 5857 5856 5855 5854 5853 5852 5851 5851 5851 5850 5850 5850 5850 5850 5851 5852 5852 5853 5854
5847 5849 5851 5851 5853 5853 5853 5852 5851 5851 5851 5850 5850 5849 5850 5850 5851 5851 5851 5851 5852 5852 5852 5853 5852 5851 5850 5849 5848 5847 5846 5845 5845 5845 5844 5844 5845 5845 5845 5847 5847 5848 5849
5838 5841 5843 5844 5845 5846 5846 5846 5844 5843 5842 5841 5840 5840 5841 5843 5844 5844 5845 5845 5845 5846 5846 5846 5846 5845 5844 5843 5842 5841 5840 5839 5838 5838 5838 5838 5838 5839 5840 5841 5842 5843 5844
5829 5832 5834 5835 5836 5838 5838 5838 5837 5835 5833 5832 5831 5831 5833 5835 5837 5838 5839 5839 5839 5840 5840 5840 5839 5839 5838 5837 5836 5835 5834 5833 5832 5831 5831 5831 5831 5832 5833 5834 5836 5837 5839
5818 5822 5824 5826 5828 5829 5829 5830 5830 5827 5825 5823 5824 5826 5827 5828 5830 5832 5833 5834 5834 5834 5833 5833 5832 5832 5831 5830 5829 5828 5827 5826 5825 5825 5825 5825 5824 5825 5826 5828 5830 5832 5834
5808 5812 5814 5816 5817 5818 5820 5821 5820 5818 5817 5817 5819 5820 5821 5822 5823 5825 5827 5828 5828 5827 5827 5826 5825 5825 5824 5823 5822 5821 5820 5819 5818 5818 5818 5818 5818 5819 5820 5822 5824 5826 5828
5799 5802 5804 5806 5807 5808 5810 5810 5810 5809 5809 5811 5812 5813 5814 5815 5817 5819 5820 5821 5821 5821 5821 5820 5819 5818 5817 5816 5815 5814 5813 5812 5811 5811 5811 5812 5813 5813 5814 5816 5817 5820 5823
5790 5792 5794 5796 5797 5798 5799 5800 5801 5800 5801 5804 5805 5806 5807 5808 5810 5813 5814 5815 5815 5815 5815 5814 5812 5811 5810 5809 5808 5807 5806 5805 5804 5804 5804 5805 5806 5807 5808 5810 5812 5814 5817
5784 5785 5787 5788 5790 5790 5790 5790 5791 5793 5795 5797 5798 5800 5801 5802 5805 5807 5809 5809 5809 5809 5808 5807 5806 5805 5804 5803 5802 5801 5800 5799 5798 5798 5798 5799 5800 5801 5803 5805 5806 5809 5812
5778 5779 5781 5782 5783 5783 5783 5784 5786 5788 5790 5792 5794 5795 5797 5799 5801 5802 5803 5803 5803 5803 5801 5800 5798 5798 5797 5796 5795 5795 5794 5793 5792 5792 5793 5794 5795 5796 5797 5799 5801 5803 5807
5775 5775 5777 5777 5778 5778 5778 5780 5781 5784 5786 5788 5790 5792 5794 5796 5797 5797 5798 5797 5797 5795 5794 5792 5791 5791 5790 5789 5789 5788 5788 5788 5787 5787 5788 5789 5790 5791 5792 5794 5796 5798 5801
5773 5774 5774 5775 5776 5775 5777 5778 5780 5782 5784 5786 5788 5790 5792 5793 5793 5793 5792 5791 5790 5789 5788 5787 5785 5784 5783 5783 5783 5783 5783 5783 5783 5783 5783 5784 5785 5787 5788 5790 5792 5794 5796
5773 5774 5774 5775 5776 5777 5778 5780 5782 5783 5785 5786 5788 5789 5789 5789 5789 5788 5787 5786 5785 5784 5783 5782 5780 5779 5778 5778 5777 5777 5778 5778 5778 5779 5779 5780 5781 5782 5783 5785 5787 5789 5791
5773 5774 5775 5776 5777 5778 5780 5781 5782 5783 5784 5785 5785 5786 5786 5785 5785 5784 5783 5782 5781 5779 5778 5777 5775 5773 5773 5772 5772 5772 5772 5773 5773 5774 5775 5775 5776 5777 5779 5780 5782 5784 5786
5773 5774 5776 5777 5778 5779 5780 5781 5782 5782 5782 5783 5783 5783 5783 5782 5781 5780 5779 5778 5776 5774 5772 5771 5769 5768 5767 5766 5766 5766 5766 5767 5768 5768 5769 5770 5771 5772 5774 5775 5776 5778 5780
5774 5776 5777 5778 5778 5779 5780 5780 5780 5781 5781 5781 5781 5780 5780 5779 5778 5776 5775 5773 5771 5769 5767 5765 5764 5763 5761 5760 5760 5759 5759 5760 5761 5762 5763 5764 5765 5766 5768 5769 5771 5772 5774
5775 5777 5778 5778 5779 5779 5779 5779 5779 5779 5779 5779 5778 5778 5777 5775 5773 5771 5769 5767 5765 5763 5762 5760 5759 5757 5756 5754 5753 5753 5753 5753 5753 5754 5755 5757 5758 5759 5761 5763 5764 5766 5767
5776 5777 5778 5778 5778 5779 5779 5778 5778 5777 5777 5776 5775 5774 5772 5770 5768 5766 5764 5762 5760 5758 5756 5754 5753 5751 5749 5748 5747 5746 5746 5746 5746 5746 5748 5749 5750 5752 5754 5755 5757 5759 5760
5778 5779 5779 5778 5778 5778 5778 5777 5776 5776 5775 5773 5772 5770 5768 5766 5764 5762 5759 5757 5755 5753 5750 5748 5746 5744 5742 5741 5740 5739 5739 5739 5739 5739 5740 5741 5743 5745 5746 5748 5750 5751 5753
5780 5780 5780 5780 5779 5778 5777 5776 5775 5773 5772 5770 5768 5766 5764 5762 5759 5757 5755 5752 5749 5747 5745 5742 5740 5738 5736 5734 5733 5732 5732 5731 5732 5732 5733 5734 5736 5738 5740 5741 5743 5744 5746
5782 5782 5781 5781 5780 5778 5777 5775 5773 5771 5769 5766 5764 5761 5759 5756 5754 5751 5749 5746 5744 5741 5739 5737 5734 5732 5730 5728 5726 5725 5724 5724 5724 5724 5725 5726 5728 5730 5733 5735 5736 5738 5740
5783 5782 5782 5781 5779 5778 5776 5773 5770 5767 5764 5761 5759 5756 5753 5751 5748 5745 5743 5740 5738 5735 5733 5731 5729 5726 5724 5721 5719 5717 5716 5715 5714 5714 5715 5717 5719 5722 5725 5728 5730 5732 5734
5785 5784 5782 5781 5779 5776 5774 5771 5767 5764 5761 5758 5755 5753 5750 5746 5743 5740 5738 5735 5733 5730 5728 5726 5723 5721 5718 5715 5712 5709 5706 5704 5703 5703 5703 5705 5708 5712 5716 5720 5723 5726 5728
5788 5786 5784 5781 5778 5776 5773 5769 5766 5763 5760 5757 5754 5751 5747 5744 5741 5737 5734 5732 5730 5727 5725 5722 5719 5716 5712 5709 5705 5701 5698 5695 5692 5690 5691 5693 5697 5702 5707 5712 5716 5720 5722
5790 5788 5785 5782 5779 5776 5773 5770 5767 5764 5761 5758 5754 5751 5747 5743 5740 5736 5733 5731 5728 5725 5723 5720 5717 5713 5709 5704 5700 5696 5691 5687 5683 5681 5681 5684 5689 5694 5700 5705 5710 5714 5717
5791 5789 5786 5784 5781 5778 5775 5772 5769 5766 5763 5760 5756 5752 5748 5745 5741 5738 5735 5732 5729 5726 5723 5719 5715 5711 5706 5701 5697 5693 5688 5683 5680 5678 5678 5680 5685 5690 5695 5700 5705 5709 5712